| time (UTC) | temp F | wind direction | speed knots | gust knots | rain 1hr in | rain 24hr in | rain mn in | humidity % | barometer mb |
| 20260509054600 | 56 | 150 | 1.7 | 5.2 | 0.01 | 0.24 | 0.01 | 89 | 1008.9 |
| 20260509054102 | 55 | 196 | 0.9 | 5.2 | 0.00 | 0.23 | 0.00 | 89 | 1009.0 |
| 20260509053600 | 55 | 0 | 0.9 | 5.2 | 0.00 | 0.23 | 0.00 | 89 | 1009.0 |
| 20260509053103 | 55 | 225 | 0.9 | 3.5 | 0.00 | 0.23 | 0.00 | 89 | 1009.1 |
| 20260509052601 | 55 | 264 | 0.9 | 3.5 | 0.00 | 0.23 | 0.00 | 89 | 1009.1 |
| 20260509052100 | 55 | 161 | 0.9 | 3.5 | 0.00 | 0.23 | 0.00 | 89 | 1009.1 |
| 20260509051606 | 55 | 230 | 0.0 | 6.1 | 0.00 | 0.23 | 0.00 | 89 | 1009.2 |
| 20260509051102 | 55 | 141 | 0.9 | 6.1 | 0.00 | 0.23 | 0.00 | 89 | 1009.1 |
| 20260509050604 | 55 | 171 | 0.9 | 7.8 | 0.00 | 0.23 | 0.00 | 89 | 1009.1 |
| 20260509050104 | 55 | 161 | 1.7 | 7.8 | 0.00 | 0.23 | 0.00 | 89 | 1009.0 |
| 20260509045559 | 55 | 141 | 1.7 | 7.8 | 0.00 | 0.23 | 0.00 | 89 | 1009.0 |
| 20260509045059 | 55 | 261 | 0.9 | 6.1 | 0.00 | 0.23 | 0.00 | 89 | 1009.0 |
| 20260509044605 | 55 | 286 | 0.9 | 6.1 | 0.00 | 0.23 | 0.00 | 89 | 1009.1 |
| 20260509044100 | 55 | 327 | 0.9 | 5.2 | 0.00 | 0.23 | 0.00 | 89 | 1009.1 |
| 20260509043604 | 55 | 279 | 0.9 | 5.2 | 0.00 | 0.23 | 0.00 | 89 | 1009.1 |
| 20260509043104 | 55 | 166 | 1.7 | 5.2 | 0.00 | 0.23 | 0.00 | 89 | 1009.1 |
| 20260509042600 | 55 | 161 | 0.0 | 4.3 | 0.01 | 0.23 | 0.00 | 89 | 1009.0 |
| 20260509042100 | 55 | 163 | 1.7 | 4.3 | 0.01 | 0.23 | 0.00 | 89 | 1009.1 |
| 20260509041602 | 55 | 164 | 1.7 | 4.3 | 0.01 | 0.23 | 0.00 | 89 | 1009.1 |
| 20260509041100 | 55 | 171 | 0.9 | 4.3 | 0.01 | 0.23 | 0.00 | 89 | 1009.2 |
| 20260509040603 | 55 | 0 | 0.0 | 1.7 | 0.01 | 0.23 | 0.00 | 89 | 1009.1 |
| 20260509035559 | 55 | 265 | 0.9 | 3.5 | 0.01 | 0.23 | 0.23 | 89 | 1009.1 |
| 20260509035100 | 55 | 148 | 0.9 | 3.5 | 0.01 | 0.23 | 0.23 | 89 | 1008.9 |
| 20260509034605 | 55 | 168 | 0.9 | 5.2 | 0.01 | 0.23 | 0.23 | 89 | 1008.9 |
| 20260509034059 | 55 | 0 | 0.9 | 5.2 | 0.01 | 0.23 | 0.23 | 89 | 1009.0 |
| 20260509033600 | 55 | 157 | 1.7 | 4.3 | 0.01 | 0.23 | 0.23 | 89 | 1009.0 |
| 20260509033111 | 55 | 183 | 0.0 | 3.5 | 0.01 | 0.23 | 0.23 | 88 | 1009.0 |
| 20260509032600 | 55 | 165 | 0.0 | 4.3 | 0.00 | 0.22 | 0.22 | 88 | 1009.1 |
| 20260509032102 | 55 | 245 | 0.0 | 4.3 | 0.00 | 0.22 | 0.22 | 88 | 1009.1 |
| 20260509031600 | 55 | 262 | 0.0 | 4.3 | 0.00 | 0.22 | 0.22 | 88 | 1009.1 |
| 20260509031100 | 55 | 191 | 0.9 | 6.1 | 0.00 | 0.22 | 0.22 | 88 | 1009.1 |
| 20260509030600 | 55 | 0 | 0.9 | 6.1 | 0.01 | 0.22 | 0.22 | 88 | 1009.2 |
| 20260509030108 | 55 | 225 | 1.7 | 7.0 | 0.01 | 0.22 | 0.22 | 88 | 1009.2 |
| 20260509025600 | 55 | 214 | 0.9 | 7.0 | 0.01 | 0.22 | 0.22 | 88 | 1009.4 |
| 20260509025101 | 55 | 264 | 1.7 | 6.1 | 0.01 | 0.22 | 0.22 | 88 | 1009.3 |
| 20260509024605 | 55 | 288 | 0.9 | 4.3 | 0.01 | 0.22 | 0.22 | 88 | 1009.3 |
| 20260509024059 | 55 | 161 | 0.9 | 7.8 | 0.01 | 0.22 | 0.22 | 88 | 1009.3 |
| 20260509023601 | 55 | 178 | 2.6 | 7.8 | 0.01 | 0.22 | 0.22 | 88 | 1009.4 |
| 20260509023057 | 55 | 294 | 1.7 | 7.8 | 0.01 | 0.22 | 0.22 | 88 | 1009.5 |
| 20260509022559 | 55 | 213 | 1.7 | 7.0 | 0.01 | 0.22 | 0.22 | 89 | 1009.7 |
| 20260509022100 | 55 | 159 | 1.7 | 7.8 | 0.01 | 0.22 | 0.22 | 89 | 1009.5 |
| 20260509021601 | 55 | 259 | 2.6 | 7.8 | 0.01 | 0.22 | 0.22 | 89 | 1009.5 |
| 20260509021059 | 55 | 273 | 1.7 | 7.0 | 0.02 | 0.22 | 0.22 | 89 | 1009.4 |
| 20260509020559 | 55 | 279 | 1.7 | 7.0 | 0.01 | 0.21 | 0.21 | 89 | 1009.1 |
| 20260509015603 | 56 | 181 | 1.7 | 7.0 | 0.01 | 0.21 | 0.21 | 89 | 1009.2 |
| 20260509015100 | 56 | 270 | 1.7 | 6.1 | 0.01 | 0.21 | 0.21 | 89 | 1009.0 |
| 20260509014600 | 56 | 287 | 1.7 | 6.1 | 0.01 | 0.21 | 0.21 | 89 | 1009.3 |
| 20260509014059 | 56 | 0 | 1.7 | 6.1 | 0.01 | 0.21 | 0.21 | 89 | 1009.1 |
| 20260509013600 | 56 | 266 | 1.7 | 6.1 | 0.01 | 0.21 | 0.21 | 90 | 1009.3 |
| 20260509013110 | 55 | 261 | 0.9 | 6.1 | 0.01 | 0.21 | 0.21 | 90 | 1009.2 |
| 20260509012600 | 55 | 149 | 1.7 | 6.1 | 0.01 | 0.21 | 0.21 | 90 | 1009.0 |
| 20260509012100 | 55 | 0 | 1.7 | 5.2 | 0.01 | 0.21 | 0.21 | 90 | 1009.1 |
| 20260509011606 | 55 | 188 | 0.9 | 3.5 | 0.01 | 0.21 | 0.21 | 89 | 1009.1 |
| 20260509011059 | 55 | 0 | 0.9 | 2.6 | 0.00 | 0.20 | 0.20 | 89 | 1009.1 |
| 20260509010559 | 55 | 0 | 0.0 | 2.6 | 0.00 | 0.20 | 0.20 | 89 | 1009.3 |
| 20260509010101 | 55 | 190 | 0.0 | 3.5 | 0.01 | 0.20 | 0.20 | 89 | 1009.2 |
| 20260509005600 | 55 | 226 | 0.0 | 3.5 | 0.01 | 0.20 | 0.20 | 89 | 1009.2 |
| 20260509005103 | 55 | 270 | 0.9 | 4.3 | 0.02 | 0.20 | 0.20 | 89 | 1009.1 |
| 20260509004603 | 55 | 0 | 0.9 | 5.2 | 0.02 | 0.20 | 0.20 | 89 | 1009.1 |
| 20260509004103 | 55 | 166 | 0.9 | 5.2 | 0.02 | 0.20 | 0.20 | 89 | 1009.1 |
| 20260509003556 | 55 | 290 | 0.9 | 3.5 | 0.02 | 0.20 | 0.20 | 89 | 1009.2 |
| 20260509003106 | 55 | 280 | 0.9 | 4.3 | 0.02 | 0.20 | 0.20 | 89 | 1009.2 |
| 20260509002600 | 55 | 166 | 0.9 | 5.2 | 0.02 | 0.20 | 0.20 | 89 | 1009.3 |
| 20260509002102 | 55 | 0 | 0.9 | 5.2 | 0.02 | 0.20 | 0.20 | 89 | 1009.3 |
| 20260509001559 | 55 | 157 | 0.9 | 6.1 | 0.03 | 0.20 | 0.20 | 89 | 1009.3 |
| 20260509001100 | 55 | 252 | 0.9 | 6.1 | 0.03 | 0.20 | 0.20 | 89 | 1009.4 |
| 20260509000601 | 55 | 0 | 0.9 | 4.3 | 0.04 | 0.20 | 0.20 | 89 | 1009.2 |
| 20260508235600 | 55 | 61 | 0.0 | 2.6 | 0.04 | 0.19 | 0.19 | 89 | 1009.7 |
| 20260508235100 | 55 | 239 | 0.9 | 3.5 | 0.04 | 0.18 | 0.18 | 89 | 1009.4 |
| 20260508234638 | 55 | 0 | 0.0 | 3.5 | 0.04 | 0.18 | 0.18 | 89 | 1009.4 |
| 20260508234101 | 55 | 263 | 0.0 | 2.6 | 0.05 | 0.18 | 0.18 | 89 | 1009.5 |
| 20260508233601 | 55 | 291 | 0.0 | 3.5 | 0.05 | 0.18 | 0.18 | 89 | 1009.5 |
| 20260508233103 | 55 | 299 | 0.0 | 5.2 | 0.06 | 0.18 | 0.18 | 88 | 1009.5 |
| 20260508232559 | 55 | 288 | 0.0 | 5.2 | 0.07 | 0.18 | 0.18 | 88 | 1009.6 |
| 20260508232059 | 55 | 154 | 1.7 | 6.1 | 0.08 | 0.18 | 0.18 | 88 | 1009.5 |
| 20260508231601 | 55 | 157 | 0.9 | 6.1 | 0.07 | 0.17 | 0.17 | 88 | 1009.6 |
| 20260508231100 | 55 | 308 | 0.9 | 4.3 | 0.08 | 0.17 | 0.17 | 88 | 1009.8 |
| 20260508230559 | 55 | 264 | 0.9 | 4.3 | 0.09 | 0.16 | 0.16 | 88 | 1009.7 |
| 20260508230059 | 55 | 232 | 1.7 | 4.3 | 0.09 | 0.15 | 0.15 | 88 | 1009.6 |
| 20260508225600 | 55 | 237 | 0.0 | 3.5 | 0.10 | 0.14 | 0.14 | 88 | 1009.5 |
| 20260508225100 | 55 | 163 | 1.7 | 3.5 | 0.10 | 0.14 | 0.14 | 88 | 1009.6 |
| 20260508224612 | 56 | 100 | 0.0 | 2.6 | 0.11 | 0.14 | 0.14 | 88 | 1009.5 |
| 20260508224101 | 56 | 328 | 0.9 | 2.6 | 0.11 | 0.13 | 0.13 | 88 | 1009.6 |
| 20260508223600 | 56 | 328 | 0.0 | 1.7 | 0.11 | 0.13 | 0.13 | 87 | 1009.7 |
| 20260508223100 | 55 | 329 | 0.0 | 1.7 | 0.11 | 0.12 | 0.12 | 87 | 1009.9 |
| 20260508222559 | 56 | 329 | 0.0 | 0.9 | 0.10 | 0.11 | 0.11 | 86 | 1010.0 |
| 20260508222100 | 56 | 332 | 0.0 | 1.7 | 0.09 | 0.10 | 0.10 | 86 | 1009.9 |
| 20260508221610 | 56 | 0 | 0.0 | 4.3 | 0.09 | 0.10 | 0.10 | 86 | 1009.9 |
| 20260508221100 | 56 | 333 | 0.0 | 4.3 | 0.09 | 0.09 | 0.09 | 86 | 1009.7 |
| 20260508220602 | 56 | 0 | 1.7 | 6.1 | 0.07 | 0.07 | 0.07 | 85 | 1010.1 |
| 20260508220100 | 56 | 306 | 2.6 | 6.1 | 0.06 | 0.06 | 0.06 | 85 | 1010.0 |
| 20260508215600 | 56 | 344 | 1.7 | 4.3 | 0.04 | 0.04 | 0.04 | 84 | 1010.2 |
| 20260508215100 | 56 | 326 | 1.7 | 5.2 | 0.04 | 0.04 | 0.04 | 84 | 1010.0 |
| 20260508214600 | 56 | 322 | 1.7 | 9.6 | 0.03 | 0.03 | 0.03 | 83 | 1009.8 |
| 20260508214102 | 56 | 309 | 3.5 | 9.6 | 0.02 | 0.02 | 0.02 | 82 | 1010.0 |
| 20260508213600 | 57 | 305 | 4.3 | 9.6 | 0.02 | 0.02 | 0.02 | 82 | 1009.9 |
| 20260508213058 | 57 | 321 | 3.5 | 9.6 | 0.01 | 0.01 | 0.01 | 81 | 1009.9 |
| 20260508212600 | 57 | 313 | 4.3 | 9.6 | 0.01 | 0.01 | 0.01 | 80 | 1010.0 |
| 20260508212100 | 58 | 320 | 6.1 | 10.4 | 0.01 | 0.01 | 0.01 | 79 | 1009.7 |
| 20260508211600 | 58 | 344 | 4.3 | 13.0 | 0.01 | 0.01 | 0.01 | 78 | 1009.7 |
| 20260508211100 | 59 | 306 | 5.2 | 13.0 | 0.00 | 0.00 | 0.00 | 75 | 1009.8 |
| 20260508210600 | 60 | 331 | 7.8 | 13.0 | 0.00 | 0.00 | 0.00 | 73 | 1009.8 |
| 20260508210058 | 61 | 319 | 5.2 | 10.4 | 0.00 | 0.00 | 0.00 | 72 | 1009.6 |
| 20260508205603 | 61 | 281 | 1.7 | 2.6 | 0.00 | 0.00 | 0.00 | 71 | 1009.5 |
| 20260508205103 | 62 | 280 | 0.9 | 2.6 | 0.00 | 0.00 | 0.00 | 70 | 1009.3 |
| 20260508204558 | 62 | 0 | 0.0 | 2.6 | 0.00 | 0.00 | 0.00 | 67 | 1009.3 |
| 20260508204059 | 63 | 0 | 0.0 | 2.6 | 0.00 | 0.00 | 0.00 | 64 | 1009.3 |
| 20260508203600 | 63 | 0 | 0.0 | 2.6 | 0.00 | 0.00 | 0.00 | 63 | 1009.4 |
| 20260508203112 | 63 | 0 | 0.0 | 2.6 | 0.00 | 0.00 | 0.00 | 62 | 1009.4 |
| 20260508202600 | 64 | 0 | 0.0 | 2.6 | 0.00 | 0.00 | 0.00 | 61 | 1009.7 |
| 20260508202059 | 64 | 0 | 0.0 | 2.6 | 0.00 | 0.00 | 0.00 | 60 | 1009.6 |
| 20260508201609 | 64 | 0 | 0.0 | 2.6 | 0.00 | 0.00 | 0.00 | 61 | 1009.8 |
| 20260508201059 | 64 | 281 | 0.9 | 5.2 | 0.00 | 0.00 | 0.00 | 59 | 1009.7 |
| 20260508200603 | 64 | 0 | 0.0 | 5.2 | 0.00 | 0.00 | 0.00 | 62 | 1009.7 |
| 20260508200111 | 63 | 0 | 0.0 | 2.6 | 0.00 | 0.00 | 0.00 | 61 | 1009.8 |
| 20260508195559 | 63 | 0 | 0.0 | 3.5 | 0.00 | 0.00 | 0.00 | 60 | 1009.9 |
| 20260508195100 | 63 | 0 | 0.0 | 3.5 | 0.00 | 0.00 | 0.00 | 60 | 1009.8 |
| 20260508194602 | 64 | 300 | 0.9 | 3.5 | 0.00 | 0.00 | 0.00 | 59 | 1009.9 |
| 20260508194059 | 63 | 0 | 0.9 | 3.5 | 0.00 | 0.00 | 0.00 | 60 | 1010.0 |
| 20260508193556 | 63 | 0 | 0.0 | 6.1 | 0.00 | 0.00 | 0.00 | 60 | 1010.1 |
| 20260508193105 | 63 | 244 | 0.9 | 6.1 | 0.00 | 0.00 | 0.00 | 59 | 1010.1 |
| 20260508192600 | 63 | 120 | 1.7 | 6.1 | 0.00 | 0.00 | 0.00 | 59 | 1010.2 |
| 20260508192100 | 63 | 0 | 0.9 | 5.2 | 0.00 | 0.00 | 0.00 | 59 | 1010.3 |
| 20260508191610 | 63 | 265 | 0.9 | 5.2 | 0.00 | 0.00 | 0.00 | 58 | 1010.2 |
| 20260508191059 | 63 | 185 | 1.7 | 5.2 | 0.00 | 0.00 | 0.00 | 59 | 1010.4 |
| 20260508190600 | 63 | 159 | 0.9 | 10.4 | 0.00 | 0.00 | 0.00 | 59 | 1010.6 |
| 20260508190100 | 63 | 213 | 0.0 | 10.4 | 0.00 | 0.00 | 0.00 | 58 | 1010.6 |
| 20260508185602 | 63 | 146 | 4.3 | 10.4 | 0.00 | 0.00 | 0.00 | 58 | 1010.8 |
| 20260508185059 | 63 | 0 | 1.7 | 8.7 | 0.00 | 0.00 | 0.00 | 59 | 1010.7 |
| 20260508184604 | 63 | 276 | 1.7 | 8.7 | 0.00 | 0.00 | 0.00 | 58 | 1011.0 |
| 20260508184102 | 63 | 0 | 1.7 | 8.7 | 0.00 | 0.00 | 0.00 | 57 | 1010.9 |
| 20260508183600 | 63 | 326 | 2.6 | 9.6 | 0.00 | 0.00 | 0.00 | 57 | 1010.9 |
| 20260508183144 | 62 | 285 | 3.5 | 12.2 | 0.00 | 0.00 | 0.00 | 56 | 1011.0 |
| 20260508182600 | 62 | 279 | 3.5 | 12.2 | 0.00 | 0.00 | 0.00 | 56 | 1011.0 |
| 20260508182059 | 63 | 182 | 0.9 | 7.8 | 0.00 | 0.00 | 0.00 | 57 | 1010.9 |
| 20260508181613 | 63 | 320 | 0.9 | 6.1 | 0.00 | 0.00 | 0.00 | 58 | 1010.9 |
| 20260508181059 | 63 | 271 | 1.7 | 6.1 | 0.00 | 0.00 | 0.00 | 56 | 1011.0 |
| 20260508180601 | 63 | 0 | 0.9 | 7.8 | 0.00 | 0.00 | 0.00 | 56 | 1010.9 |
| 20260508180103 | 63 | 279 | 1.7 | 12.2 | 0.00 | 0.00 | 0.00 | 55 | 1011.0 |
| 20260508175604 | 63 | 298 | 2.6 | 12.2 | 0.00 | 0.00 | 0.00 | 55 | 1011.0 |
| 20260508175102 | 64 | 289 | 4.3 | 12.2 | 0.00 | 0.00 | 0.00 | 53 | 1011.0 |
| 20260508174600 | 64 | 294 | 4.3 | 13.0 | 0.00 | 0.00 | 0.00 | 53 | 1010.9 |
| 20260508174102 | 65 | 273 | 5.2 | 13.0 | 0.00 | 0.00 | 0.00 | 51 | 1010.9 |
| 20260508173605 | 65 | 259 | 4.3 | 12.2 | 0.00 | 0.00 | 0.00 | 51 | 1011.0 |
| 20260508173109 | 66 | 297 | 3.5 | 10.4 | 0.00 | 0.00 | 0.00 | 52 | 1010.9 |
| 20260508172559 | 67 | 189 | 2.6 | 10.4 | 0.00 | 0.00 | 0.00 | 53 | 1011.0 |
| 20260508172059 | 67 | 296 | 3.5 | 11.3 | 0.00 | 0.00 | 0.00 | 50 | 1011.0 |
| 20260508171558 | 68 | 319 | 4.3 | 11.3 | 0.00 | 0.00 | 0.00 | 51 | 1011.1 |
| 20260508171059 | 68 | 0 | 2.6 | 9.6 | 0.00 | 0.00 | 0.00 | 53 | 1011.2 |
| 20260508170559 | 67 | 283 | 2.6 | 9.6 | 0.00 | 0.00 | 0.00 | 54 | 1011.4 |
| 20260508170100 | 66 | 134 | 2.6 | 12.2 | 0.00 | 0.00 | 0.00 | 55 | 1011.6 |
| 20260508165555 | 65 | 352 | 1.7 | 12.2 | 0.00 | 0.00 | 0.00 | 55 | 1011.6 |
| 20260508165056 | 65 | 146 | 2.6 | 11.3 | 0.00 | 0.00 | 0.00 | 54 | 1011.8 |
| 20260508164559 | 65 | 0 | 1.7 | 9.6 | 0.00 | 0.00 | 0.00 | 54 | 1011.8 |
| 20260508164056 | 65 | 262 | 3.5 | 9.6 | 0.00 | 0.00 | 0.00 | 54 | 1011.9 |
| 20260508163555 | 65 | 315 | 1.7 | 10.4 | 0.00 | 0.00 | 0.00 | 54 | 1012.0 |
| 20260508163057 | 65 | 60 | 3.5 | 10.4 | 0.00 | 0.00 | 0.00 | 54 | 1012.1 |
| 20260508162600 | 66 | 126 | 3.5 | 10.4 | 0.00 | 0.00 | 0.00 | 52 | 1012.2 |
| 20260508162059 | 67 | 311 | 2.6 | 9.6 | 0.00 | 0.00 | 0.00 | 54 | 1012.2 |
| 20260508161556 | 65 | 275 | 1.7 | 9.6 | 0.00 | 0.00 | 0.00 | 57 | 1012.2 |
| 20260508161100 | 64 | 50 | 0.9 | 9.6 | 0.00 | 0.00 | 0.00 | 57 | 1012.3 |
| 20260508160601 | 63 | 58 | 2.6 | 9.6 | 0.00 | 0.00 | 0.00 | 57 | 1012.4 |
| 20260508155559 | 64 | 152 | 1.7 | 8.7 | 0.00 | 0.00 | 0.00 | 56 | 1012.5 |
| 20260508155100 | 64 | 130 | 2.6 | 8.7 | 0.00 | 0.00 | 0.00 | 56 | 1012.4 |
| 20260508154557 | 64 | 162 | 1.7 | 6.1 | 0.00 | 0.00 | 0.00 | 57 | 1012.4 |
| 20260508154059 | 62 | 130 | 1.7 | 7.0 | 0.00 | 0.00 | 0.00 | 57 | 1012.5 |
| 20260508153559 | 63 | 157 | 1.7 | 7.0 | 0.00 | 0.00 | 0.00 | 58 | 1012.7 |
| 20260508153058 | 63 | 329 | 1.7 | 7.0 | 0.00 | 0.00 | 0.00 | 56 | 1012.7 |
| 20260508152555 | 62 | 250 | 1.7 | 8.7 | 0.00 | 0.00 | 0.00 | 56 | 1012.8 |
| 20260508152058 | 62 | 217 | 2.6 | 8.7 | 0.00 | 0.00 | 0.00 | 57 | 1012.6 |
| 20260508151558 | 62 | 346 | 1.7 | 8.7 | 0.00 | 0.00 | 0.00 | 56 | 1012.7 |
| 20260508151056 | 62 | 360 | 2.6 | 8.7 | 0.00 | 0.00 | 0.00 | 57 | 1012.5 |
| 20260508150556 | 62 | 290 | 2.6 | 7.8 | 0.00 | 0.00 | 0.00 | 57 | 1012.7 |
| 20260508150122 | 62 | 290 | 2.6 | 7.0 | 0.00 | 0.00 | 0.00 | 56 | 1012.7 |
| 20260508145556 | 63 | 184 | 1.7 | 7.0 | 0.00 | 0.00 | 0.00 | 56 | 1012.7 |
| 20260508145055 | 63 | 115 | 0.9 | 8.7 | 0.00 | 0.00 | 0.00 | 57 | 1012.8 |
| 20260508144605 | 63 | 219 | 2.6 | 8.7 | 0.00 | 0.00 | 0.00 | 58 | 1012.8 |
| 20260508144056 | 62 | 236 | 2.6 | 8.7 | 0.00 | 0.00 | 0.00 | 58 | 1012.9 |
| 20260508143601 | 62 | 280 | 2.6 | 7.8 | 0.00 | 0.00 | 0.00 | 56 | 1012.9 |
| 20260508143108 | 61 | 289 | 0.9 | 9.6 | 0.00 | 0.00 | 0.00 | 57 | 1012.9 |
| 20260508142602 | 61 | 298 | 0.9 | 9.6 | 0.00 | 0.00 | 0.00 | 57 | 1013.2 |
| 20260508142104 | 61 | 284 | 2.6 | 9.6 | 0.00 | 0.00 | 0.00 | 57 | 1013.0 |
| 20260508141607 | 61 | 316 | 1.7 | 7.0 | 0.00 | 0.00 | 0.00 | 58 | 1013.1 |
| 20260508141100 | 60 | 259 | 0.9 | 7.0 | 0.00 | 0.00 | 0.00 | 58 | 1013.1 |
| 20260508140601 | 60 | 167 | 1.7 | 7.8 | 0.00 | 0.00 | 0.00 | 58 | 1013.1 |
| 20260508140109 | 60 | 340 | 2.6 | 8.7 | 0.00 | 0.00 | 0.00 | 57 | 1013.1 |
| 20260508135604 | 60 | 130 | 2.6 | 8.7 | 0.00 | 0.00 | 0.00 | 58 | 1013.2 |
| 20260508135100 | 59 | 274 | 2.6 | 8.7 | 0.00 | 0.00 | 0.00 | 59 | 1013.2 |
| 20260508134604 | 59 | 171 | 2.6 | 8.7 | 0.00 | 0.00 | 0.00 | 58 | 1013.1 |
| 20260508134100 | 59 | 0 | 1.7 | 8.7 | 0.00 | 0.00 | 0.00 | 58 | 1013.2 |
| 20260508133601 | 59 | 241 | 3.5 | 11.3 | 0.00 | 0.00 | 0.00 | 60 | 1013.3 |
| 20260508133100 | 58 | 178 | 1.7 | 11.3 | 0.00 | 0.00 | 0.00 | 59 | 1013.3 |
| 20260508132604 | 58 | 277 | 2.6 | 11.3 | 0.00 | 0.00 | 0.00 | 58 | 1013.3 |
| 20260508132100 | 58 | 268 | 0.9 | 9.6 | 0.00 | 0.00 | 0.00 | 60 | 1013.3 |
| 20260508131604 | 57 | 155 | 0.9 | 9.6 | 0.00 | 0.00 | 0.00 | 60 | 1013.4 |
| 20260508131101 | 57 | 309 | 1.7 | 8.7 | 0.00 | 0.00 | 0.00 | 60 | 1013.3 |
| 20260508130603 | 57 | 155 | 1.7 | 8.7 | 0.00 | 0.00 | 0.00 | 60 | 1013.4 |
| 20260508130059 | 56 | 306 | 1.7 | 6.1 | 0.00 | 0.00 | 0.00 | 60 | 1013.4 |
| 20260508125601 | 56 | 0 | 0.9 | 5.2 | 0.00 | 0.00 | 0.00 | 61 | 1013.6 |
| 20260508125101 | 55 | 214 | 0.9 | 5.2 | 0.00 | 0.00 | 0.00 | 61 | 1013.4 |
| 20260508124603 | 55 | 172 | 0.9 | 5.2 | 0.00 | 0.00 | 0.00 | 61 | 1013.6 |
| 20260508124102 | 54 | 296 | 1.7 | 4.3 | 0.00 | 0.00 | 0.00 | 61 | 1013.5 |
| 20260508123602 | 54 | 292 | 0.0 | 2.6 | 0.00 | 0.00 | 0.00 | 63 | 1013.5 |
| 20260508123101 | 54 | 0 | 0.0 | 2.6 | 0.00 | 0.00 | 0.00 | 63 | 1013.5 |
| 20260508122601 | 53 | 0 | 0.0 | 2.6 | 0.00 | 0.00 | 0.00 | 64 | 1013.5 |
| 20260508122101 | 52 | 0 | 0.0 | 0.9 | 0.00 | 0.00 | 0.00 | 64 | 1013.6 |
| 20260508121600 | 51 | 0 | 0.0 | 0.0 | 0.00 | 0.00 | 0.00 | 64 | 1013.5 |
| 20260508121100 | 51 | 0 | 0.0 | 0.0 | 0.00 | 0.00 | 0.00 | 66 | 1013.6 |
| 20260508120600 | 50 | 0 | 0.0 | 2.6 | 0.00 | 0.00 | 0.00 | 67 | 1013.4 |
| 20260508115601 | 49 | 352 | 0.0 | 1.7 | 0.00 | 0.00 | 0.00 | 67 | 1013.4 |
| 20260508115102 | 49 | 0 | 0.0 | 0.9 | 0.00 | 0.00 | 0.00 | 67 | 1013.5 |
| 20260508114604 | 49 | 0 | 0.0 | 0.9 | 0.00 | 0.00 | 0.00 | 67 | 1013.6 |
| 20260508114101 | 49 | 0 | 0.0 | 0.9 | 0.00 | 0.00 | 0.00 | 67 | 1013.4 |
| 20260508113601 | 49 | 0 | 0.0 | 0.9 | 0.00 | 0.00 | 0.00 | 67 | 1013.2 |
| 20260508113125 | 49 | 0 | 0.0 | 1.7 | 0.00 | 0.00 | 0.00 | 67 | 1013.2 |
| 20260508112600 | 49 | 0 | 0.0 | 1.7 | 0.00 | 0.00 | 0.00 | 66 | 1013.4 |
| 20260508112104 | 49 | 350 | 0.0 | 2.6 | 0.00 | 0.00 | 0.00 | 66 | 1013.4 |
| 20260508111603 | 49 | 0 | 0.0 | 2.6 | 0.00 | 0.00 | 0.00 | 66 | 1013.3 |
| 20260508111100 | 50 | 0 | 0.0 | 3.5 | 0.00 | 0.00 | 0.00 | 65 | 1013.3 |
| 20260508110600 | 50 | 0 | 0.0 | 3.5 | 0.00 | 0.00 | 0.00 | 65 | 1013.3 |
| 20260508110057 | 50 | 352 | 0.9 | 3.5 | 0.00 | 0.00 | 0.00 | 64 | 1013.3 |
| 20260508105600 | 50 | 265 | 0.9 | 3.5 | 0.00 | 0.00 | 0.00 | 64 | 1013.1 |
| 20260508105100 | 50 | 299 | 0.0 | 7.8 | 0.00 | 0.00 | 0.00 | 64 | 1013.1 |
| 20260508104604 | 51 | 0 | 2.6 | 7.8 | 0.00 | 0.00 | 0.00 | 64 | 1013.3 |
| 20260508104100 | 51 | 5 | 1.7 | 5.2 | 0.00 | 0.00 | 0.00 | 63 | 1013.3 |
| 20260508103601 | 51 | 0 | 0.9 | 5.2 | 0.00 | 0.00 | 0.00 | 63 | 1012.8 |
| 20260508103107 | 51 | 0 | 0.9 | 5.2 | 0.00 | 0.00 | 0.00 | 63 | 1012.8 |
| 20260508102602 | 51 | 132 | 0.0 | 5.2 | 0.00 | 0.00 | 0.00 | 63 | 1012.7 |
| 20260508102101 | 51 | 268 | 0.0 | 3.5 | 0.00 | 0.00 | 0.00 | 63 | 1012.6 |
| 20260508101601 | 51 | 0 | 0.9 | 5.2 | 0.00 | 0.00 | 0.00 | 63 | 1012.5 |
| 20260508101102 | 51 | 313 | 0.9 | 5.2 | 0.00 | 0.00 | 0.00 | 63 | 1012.5 |
| 20260508100601 | 51 | 0 | 0.0 | 3.5 | 0.00 | 0.00 | 0.00 | 62 | 1012.6 |
| 20260508100100 | 51 | 0 | 0.0 | 5.2 | 0.00 | 0.00 | 0.00 | 62 | 1012.7 |
| 20260508095603 | 51 | 0 | 0.0 | 5.2 | 0.00 | 0.00 | 0.00 | 62 | 1012.6 |
| 20260508095102 | 51 | 275 | 0.0 | 4.3 | 0.00 | 0.00 | 0.00 | 62 | 1012.6 |
| 20260508094559 | 51 | 161 | 0.9 | 2.6 | 0.00 | 0.00 | 0.00 | 61 | 1012.6 |
| 20260508094101 | 51 | 244 | 0.0 | 4.3 | 0.00 | 0.00 | 0.00 | 61 | 1012.7 |
| 20260508093600 | 52 | 0 | 0.0 | 6.1 | 0.00 | 0.00 | 0.00 | 61 | 1012.7 |
| 20260508093100 | 52 | 0 | 0.0 | 6.1 | 0.00 | 0.00 | 0.00 | 61 | 1012.7 |
| 20260508092600 | 52 | 0 | 0.0 | 6.1 | 0.00 | 0.00 | 0.00 | 61 | 1012.8 |
| 20260508092100 | 52 | 117 | 0.0 | 2.6 | 0.00 | 0.00 | 0.00 | 61 | 1012.7 |
| 20260508091600 | 52 | 283 | 0.0 | 2.6 | 0.00 | 0.00 | 0.00 | 61 | 1012.7 |
| 20260508091101 | 52 | 242 | 0.0 | 2.6 | 0.00 | 0.00 | 0.00 | 61 | 1012.8 |
| 20260508090601 | 52 | 0 | 0.0 | 2.6 | 0.00 | 0.00 | 0.00 | 61 | 1012.9 |
| 20260508085600 | 52 | 0 | 0.0 | 2.6 | 0.00 | 0.00 | 0.00 | 61 | 1013.0 |
| 20260508085100 | 52 | 0 | 0.0 | 2.6 | 0.00 | 0.00 | 0.00 | 61 | 1012.8 |
| 20260508084609 | 53 | 0 | 0.0 | 2.6 | 0.00 | 0.00 | 0.00 | 61 | 1013.0 |
| 20260508084101 | 53 | 254 | 0.0 | 3.5 | 0.00 | 0.00 | 0.00 | 61 | 1013.0 |
| 20260508083600 | 53 | 0 | 0.0 | 5.2 | 0.00 | 0.00 | 0.00 | 61 | 1013.2 |
| 20260508083103 | 53 | 315 | 0.9 | 5.2 | 0.00 | 0.00 | 0.00 | 61 | 1013.2 |
| 20260508082600 | 52 | 247 | 0.0 | 2.6 | 0.00 | 0.00 | 0.00 | 61 | 1013.2 |
| 20260508082100 | 53 | 263 | 0.0 | 5.2 | 0.00 | 0.00 | 0.00 | 61 | 1013.2 |
| 20260508081614 | 53 | 0 | 0.0 | 5.2 | 0.00 | 0.00 | 0.00 | 60 | 1013.2 |
| 20260508081100 | 53 | 0 | 1.7 | 6.1 | 0.00 | 0.00 | 0.00 | 60 | 1013.3 |
| 20260508080600 | 53 | 295 | 1.7 | 6.1 | 0.00 | 0.00 | 0.00 | 60 | 1013.5 |
| 20260508080100 | 53 | 262 | 0.9 | 7.8 | 0.00 | 0.00 | 0.00 | 60 | 1013.5 |
| 20260508075600 | 53 | 0 | 1.7 | 9.6 | 0.00 | 0.00 | 0.00 | 59 | 1013.5 |
| 20260508075059 | 53 | 266 | 0.0 | 9.6 | 0.00 | 0.00 | 0.00 | 59 | 1013.5 |
| 20260508074609 | 53 | 267 | 2.6 | 9.6 | 0.00 | 0.00 | 0.00 | 59 | 1013.5 |
| 20260508074103 | 53 | 297 | 0.9 | 6.1 | 0.00 | 0.00 | 0.00 | 59 | 1013.3 |
| 20260508073601 | 53 | 289 | 0.0 | 6.1 | 0.00 | 0.00 | 0.00 | 59 | 1013.2 |
| 20260508073107 | 52 | 0 | 1.7 | 6.1 | 0.00 | 0.00 | 0.00 | 59 | 1013.2 |
| 20260508072600 | 52 | 0 | 0.9 | 7.0 | 0.00 | 0.00 | 0.00 | 60 | 1013.3 |
| 20260508072100 | 52 | 0 | 0.9 | 7.0 | 0.00 | 0.00 | 0.00 | 60 | 1013.4 |
| 20260508071602 | 52 | 242 | 0.0 | 4.3 | 0.00 | 0.00 | 0.00 | 60 | 1013.3 |
| 20260508071100 | 52 | 0 | 0.9 | 4.3 | 0.00 | 0.00 | 0.00 | 60 | 1013.2 |
| 20260508070601 | 53 | 307 | 0.0 | 6.1 | 0.00 | 0.00 | 0.00 | 60 | 1013.2 |
| 20260508070104 | 53 | 286 | 0.0 | 6.1 | 0.00 | 0.00 | 0.00 | 59 | 1013.2 |
| 20260508065601 | 53 | 0 | 0.9 | 6.1 | 0.00 | 0.00 | 0.00 | 59 | 1013.4 |
| 20260508065101 | 53 | 268 | 0.9 | 6.1 | 0.00 | 0.00 | 0.00 | 59 | 1013.5 |
| 20260508064609 | 53 | 0 | 0.0 | 5.2 | 0.00 | 0.00 | 0.00 | 59 | 1013.6 |
| 20260508064101 | 53 | 279 | 0.0 | 5.2 | 0.00 | 0.00 | 0.00 | 59 | 1013.5 |
| 20260508063600 | 53 | 242 | 0.9 | 4.3 | 0.00 | 0.00 | 0.00 | 59 | 1013.5 |
| 20260508063059 | 53 | 0 | 0.0 | 4.3 | 0.00 | 0.00 | 0.00 | 59 | 1013.8 |
| 20260508062600 | 53 | 0 | 0.0 | 4.3 | 0.00 | 0.00 | 0.00 | 59 | 1013.6 |
| 20260508062100 | 53 | 208 | 0.0 | 6.1 | 0.00 | 0.00 | 0.00 | 60 | 1013.6 |
| 20260508061604 | 53 | 178 | 0.9 | 6.1 | 0.00 | 0.00 | 0.00 | 59 | 1013.6 |
| 20260508061101 | 53 | 265 | 0.9 | 7.0 | 0.00 | 0.00 | 0.00 | 60 | 1013.6 |
| 20260508060600 | 53 | 0 | 0.9 | 7.0 | 0.00 | 0.00 | 0.00 | 60 | 1013.5 |
| 20260508060108 | 53 | 225 | 0.0 | 7.0 | 0.00 | 0.00 | 0.00 | 60 | 1013.5 |
| 20260508055602 | 53 | 153 | 1.7 | 7.0 | 0.00 | 0.00 | 0.00 | 60 | 1013.5 |
| 20260508055100 | 53 | 0 | 0.0 | 5.2 | 0.00 | 0.00 | 0.00 | 60 | 1013.5 |